RH
14 13 14 17 18 18 19 20 23 24 28 26 33 27 26 25 21 22 23 30 32 36 38 36 35 36 39 45 44 47 48 49 48 50 53 52 54 54 53 47 44 44 50
25 23 21 19 19 19 19 19 20 24 27 27 29 29 27 25 21 21 19 24 29 33 35 37 37 36 37 40 43 44 47 48 49 52 56 57 57 59 57 57 53 52 55
38 36 33 30 28 25 23 21 20 19 20 22 24 26 23 22 23 20 20 20 24 31 35 37 38 37 35 36 39 42 46 46 47 46 48 55 58 59 60 63 59 57 58
46 45 43 39 35 33 32 28 24 22 19 22 22 25 28 26 25 22 21 22 20 26 33 36 36 34 34 34 35 38 39 43 44 45 46 47 53 58 60 63 64 64 61
46 46 45 47 43 40 37 36 33 26 23 22 23 26 28 28 25 23 19 20 22 17 23 30 31 31 33 34 35 37 38 38 41 44 47 49 51 57 62 66 69 69 67
42 43 46 48 49 46 41 40 39 36 31 29 28 27 30 32 28 23 21 19 20 19 16 20 26 29 30 33 34 36 36 36 38 42 45 48 51 55 62 69 72 71 69
39 40 40 41 44 46 47 43 42 39 38 35 35 30 30 32 37 34 27 25 22 20 18 15 18 23 28 30 33 36 36 35 36 42 43 49 53 56 60 69 74 75 73
36 35 36 36 34 39 42 44 44 44 41 39 40 38 31 31 34 37 40 37 31 29 25 21 19 18 21 24 26 30 31 34 35 41 45 50 57 62 62 66 71 73 74
30 32 33 34 35 32 35 38 46 47 46 43 44 43 35 33 38 39 42 46 43 39 34 29 30 27 23 25 25 25 30 35 39 42 49 53 60 65 69 67 77 80 79
30 30 32 34 35 35 33 34 38 43 45 47 44 44 46 42 42 45 51 54 51 48 49 44 40 39 42 32 30 29 28 28 35 43 49 52 55 59 65 70 83 88 86
26 30 31 32 33 32 34 33 34 36 40 40 44 44 44 42 41 46 52 56 55 58 57 52 50 49 52 50 48 45 37 38 35 37 38 45 56 67 76 77 86 89 91
16 18 23 27 29 29 30 32 35 36 37 38 41 43 42 45 47 47 48 52 54 59 56 57 58 53 58 60 56 52 50 53 53 52 53 51 57 63 70 79 87 91 94
14 16 14 15 16 18 23 28 33 37 41 41 43 43 45 48 49 49 47 46 49 56 58 62 60 62 65 64 63 65 67 70 70 64 63 66 70 70 79 83 85 92 94
15 16 16 17 18 21 24 30 35 39 41 45 48 48 47 49 47 45 45 46 49 51 54 60 62 66 69 68 63 71 78 77 77 75 74 64 75 88 81 83 91 92 96
19 20 20 21 24 25 28 35 38 38 44 47 46 45 46 47 49 48 52 53 54 56 58 61 63 62 64 63 65 62 67 70 72 81 87 76 78 87 87 81 90 94 95
24 24 24 28 31 32 36 35 40 42 42 45 48 51 52 50 51 52 50 53 50 48 47 48 49 49 52 57 61 65 68 69 72 78 80 82 88 98 96 93 95 97 94
30 31 31 32 36 35 38 40 40 43 44 46 48 48 47 44 43 43 44 44 45 48 50 48 48 52 55 57 55 60 64 67 68 73 79 87 96 96 93 94 94 97 92
33 34 35 39 39 41 41 41 46 43 42 40 38 37 37 37 35 34 34 35 39 44 48 52 52 52 53 54 57 58 66 63 72 71 92 99 95 94 99 95 88 90 84
38 38 38 36 37 39 42 44 42 40 40 39 36 33 32 30 31 32 34 36 36 39 43 47 52 55 59 63 68 74 74 80 90 93 99 99 97 95 92 96 96 93 89
39 40 41 39 36 38 38 34 33 34 34 34 35 35 36 36 37 38 38 38 41 43 48 53 59 61 60 64 69 78 86 89 94 88 89 96 94 95 99 97 94 95 72
40 41 41 39 39 39 39 39 39 40 42 43 42 42 42 44 43 40 41 43 44 47 47 49 52 55 58 64 71 77 82 91 94 93 92 97 97 99 92 85 88 75 61
48 49 51 49 48 47 49 53 53 51 51 50 53 51 49 50 47 47 48 48 50 52 51 51 55 59 68 74 80 85 93 94 93 94 95 96 96 91 83 77 70 63 55
61 59 59 56 54 56 55 57 56 55 54 54 56 56 58 56 53 51 54 55 54 55 59 60 60 64 68 79 76 77 77 81 86 89 88 85 81 78 69 70 66 62 55
67 70 67 65 65 64 62 63 61 62 62 63 63 63 65 64 63 59 63 66 63 62 63 63 64 72 71 79 79 83 82 78 76 77 73 69 67 64 62 61 61 55 48
77 76 73 76 74 73 73 71 70 71 72 72 70 70 72 72 72 70 74 74 71 72 65 66 69 71 75 78 80 79 80 76 73 70 66 64 65 66 65 60 52 45 39
83 81 79 78 76 76 75 76 77 77 78 78 78 75 74 72 69 73 74 75 74 76 70 68 70 71 75 79 81 82 79 70 68 63 63 62 65 63 60 54 50 43 38